Hourly Data Report for October 31, 2016

All times are specified in Local Standard Time (LST). Add 1 hour to adjust for Daylight Saving Time where and when it is observed.

HALL BEACH A
NUNAVUT

68°46'33.000" N
81°14'33.000" W
9.10 m
2402354
71293
YUX

Related Data

No related data is available for this station

Download Data

Hourly Data (October 2016)
Hourly Data Report for October 31, 2016
Temp Definition
°C
Dew Point Temp Definition
°C
Rel Hum Definition
%
Wind Dir Definition
10's deg

Wind Spd Definition
km/h
Visibility Definition
km
Stn Press Definition
kPa
Hmdx Definition


Wind Chill Definition


Weather Definition


TIME
00:00 Legend Double Dagger -3.9 -5.3 90 3 43 3.6 99.78   -13 Snow
01:00 Legend Double Dagger -4.1 -5.7 89 4 39 16.1 99.74   -13 Snow
02:00 Legend Double Dagger -4.2 -6.4 85 4 35 16.1 99.72   -13 LegendNANA
03:00 Legend Double Dagger -4.3 -6.2 87 3 32 16.1 99.75   -12 LegendNANA
04:00 Legend Double Dagger -4.2 -6.5 84 2 32 16.1 99.72   -12 Snow
05:00 Legend Double Dagger -4.4 -6.7 84 2 28 16.1 99.71   -12 LegendNANA
06:00 Legend Double Dagger -4.9 -7.0 85 1 30 16.1 99.67   -13 LegendNANA
07:00 Legend Double Dagger -5.1 -6.9 87 36 32 14.5 99.63   -13 Snow
08:00 Legend Double Dagger -4.7 -6.7 86 2 26 16.1 99.61   -12 Snow
09:00 Legend Double Dagger -5.2 -8.4 78 4 22 16.1 99.61   -12 LegendNANA
10:00 Legend Double Dagger -5.2 -8.3 79 2 24 16.1 99.60   -12 LegendNANA
11:00 Legend Double Dagger -5.3 -8.5 78 2 18 16.1 99.58   -12 LegendNANA
12:00 Legend Double Dagger -7.0 -8.2 92 33 26 16.1 99.58   -15 LegendNANA
13:00 Legend Double Dagger -9.6 -11.2 88 33 26 16.1 99.59   -18 LegendNANA
14:00 Legend Double Dagger -7.8 -9.3 89 32 30 16.1 99.59   -17 LegendNANA
15:00 Legend Double Dagger -8.3 -9.9 88 32 26 16.1 99.60   -17 LegendNANA
16:00 Legend Double Dagger -9.5 -10.9 90 32 30 16.1 99.62   -19 LegendNANA
17:00 Legend Double Dagger -10.5 -12.1 88 32 30 16.1 99.66   -20 LegendNANA
18:00 Legend Double Dagger -10.8 -12.3 89 31 26 16.1 99.66   -20 LegendNANA
19:00 Legend Double Dagger -10.0 -12.1 85 31 30 16.1 99.69   -20 Snow
20:00 Legend Double Dagger -11.7 -14.0 83 31 26 16.1 99.70   -21 LegendNANA
21:00 Legend Double Dagger -10.8 -13.3 82 30 22 16.1 99.72   -19 LegendNANA
22:00 Legend Double Dagger -9.4 -11.5 85 30 26 16.1 99.71   -18 LegendNANA
23:00 Legend Double Dagger -11.1 -12.7 88 28 17 16.1 99.77   -19 LegendNANA

Notes on Data Quality.

Legend

  • E = Estimated
  • M = Missing
  • NA = Not Available
  • ‡ = Partner data that is not subject to review by the National Climate Archives
Date modified: